Hourly Data Report for October 02, 2016

All times are specified in Local Standard Time (LST). Add 1 hour to adjust for Daylight Saving Time where and when it is observed.

HALL BEACH A
NUNAVUT

68°46'33.000" N
81°14'33.000" W
9.10 m
2402354
71293
YUX

Download Data

Hourly Data (October 2016)
Hourly Data Report for October 2, 2016
Temp Definition
°C
Dew Point Temp Definition
°C
Rel Hum Definition
%
Wind Dir Definition
10's deg

Wind Spd Definition
km/h
Visibility Definition
km
Stn Press Definition
kPa
Hmdx Definition


Wind Chill Definition


Weather Definition


TIME
00:00 Legend Double Dagger -3.0 -4.8 87 33 30 16.1 101.44   -10 LegendNANA
01:00 Legend Double Dagger -2.8 -4.6 87 33 32 16.1 101.46   -10 LegendNANA
02:00 Legend Double Dagger -2.7 -4.9 85 32 37 16.1 101.45   -11 LegendNANA
03:00 Legend Double Dagger -2.0 -4.2 85 33 37 16.1 101.48   -10 LegendNANA
04:00 Legend Double Dagger -2.3 -4.3 86 33 37 16.1 101.52   -10 LegendNANA
05:00 Legend Double Dagger -2.6 -4.5 87 32 37 16.1 101.53   -11 LegendNANA
06:00 Legend Double Dagger -2.5 -4.5 86 32 34 16.1 101.58   -10 LegendNANA
07:00 Legend Double Dagger -2.5 -4.7 85 33 41 16.1 101.59   -11 LegendNANA
08:00 Legend Double Dagger -2.3 -4.5 85 33 41 16.1 101.58   -11 LegendNANA
09:00 Legend Double Dagger -2.0 -4.3 84 32 41 16.1 101.57   -10 LegendNANA
10:00 Legend Double Dagger -1.8 -4.7 80 33 43 16.1 101.55   -10 LegendNANA
11:00 Legend Double Dagger -1.5 -5.0 77 33 50 16.1 101.53   -10 LegendNANA
12:00 Legend Double Dagger -1.5 -5.0 77 34 48 16.1 101.52   -10 LegendNANA
13:00 Legend Double Dagger -1.0 -4.6 77 33 37 16.1 101.56   -8 LegendNANA
14:00 Legend Double Dagger -0.6 -5.2 71 32 43 16.1 101.56   -8 LegendNANA
15:00 Legend Double Dagger -0.7 -4.8 74 32 52 16.1 101.51   -9 LegendNANA
16:00 Legend Double Dagger -0.9 -4.6 76 31 46 16.1 101.55   -9 LegendNANA
17:00 Legend Double Dagger -1.8 -5.1 78 32 45 16.1 101.53   -10 LegendNANA
18:00 Legend Double Dagger -2.2 -4.7 83 30 35 16.1 101.49   -10 LegendNANA
19:00 Legend Double Dagger -2.9 -5.0 86 29 26 16.1 101.53   -10 LegendNANA
20:00 Legend Double Dagger -2.8 -4.7 87 29 32 16.1 101.48   -10 LegendNANA
21:00 Legend Double Dagger -2.5 -4.7 85 30 39 16.1 101.40   -11 LegendNANA
22:00 Legend Double Dagger -2.5 -4.4 87 28 21 16.1 101.39   -9 LegendNANA
23:00 Legend Double Dagger -2.8 -4.5 88 27 24 16.1 101.34   -9 LegendNANA

Notes on Data Quality.

Legend

  • E = Estimated
  • M = Missing
  • NA = Not Available
  • ‡ = Partner data that is not subject to review by the National Climate Archives
Date modified: